Regional Weather Roundup
Issued by NWS

Home | Current Version | Previous Version | Text Only | Print | Product List | Glossary On
Versions: 1 2 3 4 5 6 7 8 9 10 11 12 13 14 15 16 17 18 19 20 21 22 23 24 25 26 27 28 29 30 31 32 33 34 35 36 37 38 39 40 41 42 43 44 45 46 47 48 49 50
790
ASUS44 KJAN 230010
RWRMS

MISSISSIPPI HOURLY WEATHER ROUNDUP
NATIONAL WEATHER SERVICE JACKSON MS
700 PM CDT MON SEP 22 2014

NOTE: "FAIR: INDICATES FEW OR NO CLOUDS BELOW 12,000 FEET WITH NO
SIGNIFICANT WEATHER AND/OR OBSTRUCTIONS TO VISIBILITY.

MSZ001>002-007>008-010>013-018>021-025>028-034>036-230100-
NORTHWEST MISSISSIPPI

CITY           SKY/WX    TMP DP  RH WIND       PRES   REMARKS
CLARKSDALE     FAIR      70  54  56 N7        30.15S
CLEVELAND      FAIR      73  54  51 N10       30.12S
GREENWOOD      CLEAR     68  55  63 N5        30.11S
6HR MIN TEMP:  68; 6HR MAX TEMP:  81;

GREENVILLE     CLEAR     75  50  41 N12       30.11S
6HR MIN TEMP:  75; 6HR MAX TEMP:  84;

GRENADA        FAIR      68  55  64 N6        30.13S
OLIVE BRANCH   CLEAR     68  52  56 NE6       30.17S
OXFORD         FAIR      66  54  63 N3        30.16S
TUNICA         CLEAR     68  54  60 N8        30.16S
$$

MSZ003>006-009-014>017-022>024-029>033-037>039-230100-
NORTHEAST MISSISSIPPI

CITY           SKY/WX    TMP DP  RH WIND       PRES   REMARKS
COLUMBUS AFB   CLEAR     71  51  48 N6        30.10S
6HR MIN TEMP:  71; 6HR MAX TEMP:  80;

CORINTH        FAIR      68  50  52 N6        30.14S
GOLDN TRIANGLE CLEAR     72  52  49 N8        30.11R
STARKVILLE     FAIR      72  52  49 N3        30.11R
TUPELO         CLEAR     68  52  56 NE9       30.12S
$$

MSZ040-058-230100-
CENTRAL MISSISSIPPI

CITY           SKY/WX    TMP DP  RH WIND       PRES   REMARKS
JACKSON INTL   CLEAR     75  53  46 N9        30.08R
6HR MIN TEMP:  75; 6HR MAX TEMP:  84;

JACKSON HAWKNS CLEAR     77  52  41 N3        30.09R
6HR MIN TEMP:  77; 6HR MAX TEMP:  84;

MERIDIAN KEY   CLEAR     73  51  46 N9        30.07R
6HR MIN TEMP:  73; 6HR MAX TEMP:  84;

MERIDIAN NAS   CLEAR     75  49  39 N7        30.07R
6HR MIN TEMP:  75; 6HR MAX TEMP:  84;

RAYMOND        FAIR      72  66  83 MISG      30.09S
VICKSBURG      CLEAR     73  54  51 N6        30.08S
6HR MIN TEMP:  73; 6HR MAX TEMP:  86;

$$

MSZ059>079-230100-
SOUTH MISSISSIPPI

CITY           SKY/WX    TMP DP  RH WIND       PRES   REMARKS
BROOKHAVEN     FAIR      75  52  43 N6        30.08S
COLUMBIA       FAIR      75  55  50 NE6       30.03S
HATTIESBURG    CLEAR     78  52  40 N6        30.04R
6HR MIN TEMP:  78; 6HR MAX TEMP:  88;

MCCOMB         CLEAR     78  52  40 NE3       30.05R
6HR MIN TEMP:  78; 6HR MAX TEMP:  87;

NATCHEZ        CLEAR     73  54  49 N8        30.07S
6HR MIN TEMP:  73; 6HR MAX TEMP:  82;

PINE BELT      CLEAR    N/A N/A N/A N5        30.06S
$$

MSZ080>082-230100-
COASTAL MISSISSIPPI

CITY           SKY/WX    TMP DP  RH WIND       PRES   REMARKS
BAY ST LOUIS   CLEAR     77  64  65 N5        29.99R
BILOXI         CLEAR     79  66  64 NE5       29.99R
6HR MIN TEMP:  77; 6HR MAX TEMP:  90; 6HR PCP:  0.41;

PASCAGOULA     CLEAR     75  66  73 CALM      29.99R
6HR MIN TEMP:  75; 6HR MAX TEMP:  90; 6HR PCP: TRACE;

GULFPORT       PTCLDY    81  65  58 NE3       29.98R
6HR MIN TEMP:  76; 6HR MAX TEMP:  90; 6HR PCP:  0.40;

$$



USA.gov is the U.S. government's official web portal to all federal, state and local government web resources and services.